Погода в Таразе

Погода в Таразе : погода сейчас, прогноз погоды и архив. Всё, что Вы хотите узнать о погоде в Таразе!

Поиск расширенной информации на нашем сайте:

Полезная информация:

Другие новости

Новости СМИ2

Главная страница сайта

Новости сайта

03.07.2017

Напоминаем, что на нашем специализированном сайте Метеоцентр.Азия вы можете получить высокодетализированные автоматические прогнозы погоды по пунктам России, СНГ и мира в авиационном формате (включающие направление и скорость ветра, видимость, явления погоды, количество и форму облачности, нижнюю и верхнюю границу облачности).

Рекомендуем:

Погода в Таразе - сегодня

Время (UTC), дата Ветер
(°,м/с) 
Видим.   Явления Облачность Т
(°С)
Тd
(°С)
f(%) Тe
(°С)
Pmin
(гПа)
dP
(гПа)
Po
(мм)
O2
(г/м3)
Тmin Tmax R s Состояние
почвы
00 22.05.19 тихо ()   20000 м    10/8 600 м кучево-дожд., средняя, верхняя 
[Cb cap|Ac lent|Ci fib]
+14.4 +6.5 59 +14  1011.2  2.5  703  268           
03 22.05.19 020 (С) 20000 м    8/8 600 м кучево-дожд. 
[Cb cap]
+16.9 +9.2 60 +18  1013.8  3.1  705  266           
06 22.05.19 030 (СВ) 20000 м  {ливн. осадки}  10/4 600 м кучево-дожд., средняя, верхняя 
[Cb cap|Ac lent|Ci fib]
+18 +8.1 52 +19  1014.3  0.7  705  265  +14         
09 22.05.19 300 (СЗ) 20000 м    10/4 600 м кучево-дожд., средняя, верхняя 
[Cb cap|Ac lent|Ci fib]
+20.9 +7.3 41 +21  1013.2  -0.3  705  263           
12 22.05.19 320 (СЗ) 20000 м    10/10 600 м кучево-дожд. 
[Cb cap]
+19.3 +1.1 30 +20  1014.4  0.6  706  265           
15 22.05.19 270 (З) 20000 м    10/10 600 м кучево-дожд. 
[Cb cap]
+16.5 +1.1 35 +17  1016.5  1.3  707  268    +21.1  0.0     
18 22.05.19 350 (С) 10 км    3/0 средняя 
[Ac lent]
+12.4 -1.7 37 +14  1019.8  1.9  708  273    +21.1  0.0     
21 22.05.19 220 (ЮЗ) 10 км    3/0 средняя 
[Ac lent]
+8.5 +0.2 56 +10  1020  -0.7  707  276           
00 23.05.19 тихо ()   20000 м    ясно 
+5.3 +2.3 81 +5  1021.4  0.4  708  279           
03 23.05.19 тихо ()   20000 м    ясно 
+14.2 +0 38 +14  1019.2  0.3  708  271           
06 23.05.19 030 (СВ) 20000 м    3/0 верхняя 
[Ci fib]
+17.5 +0.2 31 +18  1017.4  -0.9  707  268  +5.2         
09 23.05.19 090 (В) 20000 м    4/0 верхняя 
[Ci sp]
+20.6 +1.7 28 +21  1014.2  -2.2  706  264           
12 23.05.19 060 (СВ) 20000 м    6/0 верхняя 
[Ci sp]
+21.7 -1.4 21 +22  1012.7  -1.2  705  263           
15 23.05.19 020 (С) 20000 м    6/0 верхняя 
[Ci sp]
+16.9 +1.3 35 +17  1013.4  -0.4  704  267    +22.1       
18 23.05.19 090 (В) 10 км    ясно 
+12.4 +4.3 58 +13  1013.9  -0.6  704  271    +22.1       
21 23.05.19 210 (ЮЗ) 10 км    ясно 
+8 +3.6 74 +8  1014.4  -0.7  704  275           
00 24.05.19 240 (ЮЗ) 20000 м    8/0 верхняя 
[Ci sp]
+7 +4.5 84 +7  1014  -0.6  703  275           
03 24.05.19 270 (З) 20000 м    10/0 верхняя 
[Cs]
+11.9 +3.2 55 +12  1012.6  703  271           
06 24.05.19 300 (СЗ) 20000 м    10/0 средняя, верхняя 
[Ac lent|Cs]
+17.8 +5.5 44 +19  1010.2  -0.8  702  265  +6.8         
09 24.05.19 330 (СЗ) 20000 м    10/6 1000 м средняя, верхняя 
[Sc diur, vesp|Ac lent|Ci fib]
+21.8 +4.1 31 +22  1008.1  -1.1  702  261           
12 24.05.19 250 (З) 20000 м    10/10 600 м кучево-дожд. 
[Cb cap]
+18.6 +4.6 40 +18  1009.9  702  264           
15 24.05.19 260 (З) 20000 м  в посл. час ливневой дождь  10/10 600 м кучево-дожд. 
[Cb cap]
+12.7 +9.8 82 +13  1014  2.5  704  269    +22.1  0.0     
18 24.05.19 210 (ЮЗ) 10 км  {ливн. осадки}  10/10 600 м кучево-дожд. 
[Cb cap]
+13.4 +11.9 91 +19  1015  1.1  705  268    +22.1  0.0     
21 24.05.19 тихо ()   10 км    6/6 1000 м 
[Sc diur, vesp]
+12.4 +11.7 95 +17  1015.3  0.1  705  269           
00 25.05.19 210 (ЮЗ) 20000 м    4/3 1000 м средняя, верхняя 
[Sc diur, vesp|Ac lent|Ci fib]
+12.4 +9.7 84 +15  1015.8  0.3  705  270           
Время (UTC), дата Ветер
(°,м/с) 
Видим.   Явления Облачность Т
(°С)
Тd
(°С)
f(%) Тe
(°С)
Pmin
(гПа)
dP
(гПа)
Po
(мм)
O2
(г/м3)
Тmin Tmax R s Состояние
почвы

Для получения пояснительной информации подведите курсор к названию столбца.

ПОГОДА в Таразе - архив

Всё, что Вы хотите узнать о погоде в Таразе - удобно и подробно!

Выберите нужную дату (начиная с 1 января 2018* года) и нажмите кнопку "Найти".
Будут отображены архивные сводки погоды по пункту Тараз, начиная с указанной даты.


Отображать данные в формате CSV (для использования в таблицах Excel)


Внимание! Наш архив погоды предназначен исключительно для личного некоммерческого использования в познавательных целях. Если Вам необходимы официальные справки о состоянии погоды (для производственных, юридических, коммерческих и т.п. целей), обращайтесь в органы Росгидромета.

*Примечание: данная дата относится к архиву по метеостанциям СССР (Россия, СНГ, Балтия).
Архив по метеостанциям Зарубежной Европы и Азии (кроме Китая) хранится 10 дней, по другим регионам земного шара (Китай, Африка, Америка, Австралия, Океания) - 1 день.

Тараз - район местоположения метеостанции


Название, широта, долгота, высота метеостанции:
Тараз (город) 42.9°ш. 71.4°д. 651 м над ур. моря [Казахстан]

Дополнительная информация

В oтличие oт бoльшинства пoгoдных сайтoв мы публикуем пoдрoбную метеoинфoрмацию в детальнoм прoфессиoнальнoм фoрмате.

Характеристики температуры и влажнoсти вoздуха измеряются на высoте 2 м в тени вдали oт зданий и деревьев.
Скoрoсть ветра измеряется на высoте 10 м (на урoвне рoста челoвека скoрoсть ветра ниже в 1.5-2 раза). Если метеoстанция нахoдится в гoрoде или в лесу, тo скoрoсть ветра занижена на 2-4 м/с пo сравнению с oткрытым местoм. Скoрoсть ветра над акватoриями крупных рек и oзёр, а также на вершинах хoлмoв на 2-5 м/с выше, чем в oбычных услoвиях.
Атмoсфернoе давление в разных тoчках местнoсти мoжет значительнo oтличаться oт давления на метеoстанции, в зависимoсти oт услoвий рельефа (при пoдъёме на 10 м давление пoнижается примернo на 1 мм рт.ст.).